User: anonymous   Login
Location: Sunrise Point
(46.9200°N, 121.5900°W)
Time: 04:21:56
(UTC-08:00)
Language:

Cosmos 2058 - Orbit

View from above orbital plane
View from above orbital plane
View from above satellite
View from above satellite

Ground track
Ground track

The orbit data is extracted from the following two-line orbital elements,

1 20465U 90010A   17056.82862556  .00000609  00000-0  49956-4 0  9990
2 20465  82.4924 354.9194 0014509 314.4870  45.5166 14.97436459468679
Epoch (UTC): 25 February 2017 19:53:13
Eccentricity: 0.0014509
inclination: 82.4924°
perigee height: 565 km
apogee height: 585 km
right ascension of ascending node: 354.9194°
argument of perigee: 314.4870°
revolutions per day: 14.97436459
mean anomaly at epoch: 45.5166°
orbit number at epoch: 46867

The dashed part of the orbit path shows where the satellite is in the earth's shadow,  

DLR